Location: Nelson
(41.2830°S, 173.2830°E)
Time: 17:06:20
(UTC+13:00)

Cosmos 841 Rocket - Pass Details

Date: 24 January 2019
Orbit: 746 x 773 km, 74.0° (Epoch: 23 October)

Event Time Altitude Azimuth Distance (km) Brightness Sun altitude
Rises 22:53:50 0° 205° (SSW) 3,287 8.2 -18.4°
Reaches altitude 10° 22:56:17 10° 210° (SSW) 2,352 7.2 -18.7°
Maximum altitude 23:01:27 51° 284° (WNW) 979 4.2 -19.4°
Enters shadow 23:04:25 24° 349° (NNW) 1,569 4.8 -19.7°
